Terug naar catalogus

DELTA 1 DEB

ActiefSSO
NORAD 17768·DEBRIS·🇺🇸 United States

Gelanceerd Mar 5, 1978 vanaf Vandenberg Space Force Base

Loading…

Volgende Passages (komende 24 uur)

TLE

VersSource: Space-Track

Epoch: Sep 14, 2026, 13:24 UTC

1 17768U 78026HA  26257.55856838  .00000441  00000-0  13698-3 0  9991
2 17768  98.6021 276.6491 0075163 185.4872 326.9432 14.44466889335249

Volg DELTA 1 DEB in realtime met AllMySat

Download on the App Store